RH
41 36 39 40 38 41 44 46 50 49 48 47 44 45 45 41 42 52 50 56 52 40
42 40 39 46 46 42 47 46 50 50 49 48 48 46 44 44 46 47 49 52 52 42
43 43 45 46 46 46 47 49 51 51 50 49 48 46 44 43 48 47 46 42 49 48
44 46 48 46 47 48 50 49 49 48 48 46 47 45 46 45 45 45 48 50 50 51
48 46 48 46 46 50 48 48 46 47 45 45 46 47 45 45 44 46 48 49 49 50
53 49 48 47 47 47 46 46 44 45 46 46 49 46 45 45 45 46 48 51 52 52
50 46 45 46 47 47 45 45 44 45 46 50 46 43 39 41 45 46 46 57 56 54
48 45 45 48 47 46 47 43 41 46 47 48 46 34 43 42 44 45 45 48 46 52
47 43 47 48 48 50 48 45 45 45 47 51 31 80 74 63 43 42 42 44 47 46
45 44 47 44 43 46 50 51 50 48 48 50 49 77 77 69 42 43 47 46 47 42
44 44 46 43 43 47 49 51 49 50 50 50 48 78 79 80 48 44 46 48 50 52
41 42 46 48 59 49 49 50 49 46 51 52 51 80 80 74 45 42 43 41 49 54
38 38 42 44 50 48 46 45 41 43 51 62 47 78 80 68 41 44 41 40 43 77
36 39 39 42 44 45 44 42 48 46 49 48 48 58 77 78 46 45 42 39 42 45
Wind_Speed
11 8 8 7 7 6 6 6 7 7 8 8 8 7 6 5 6 7 6 8 7 5
9 9 8 10 7 6 7 7 7 7 8 7 7 7 5 5 6 6 5 6 6 5
10 9 9 9 9 7 7 7 7 7 7 6 6 6 5 5 6 6 5 5 6 6
10 10 9 8 9 8 7 7 7 7 6 6 6 6 6 6 5 6 6 6 6 7
11 11 10 9 10 9 8 7 7 7 6 5 5 6 6 6 6 7 7 7 7 7
12 12 11 11 10 9 9 7 7 7 6 6 5 5 5 5 6 6 6 7 7 7
13 12 11 11 10 9 9 8 7 7 6 5 5 4 4 4 4 4 5 6 6 7
13 12 11 11 11 10 9 8 7 7 6 6 4 2 2 2 2 4 5 5 5 5
14 13 12 12 11 10 10 9 8 7 7 6 4 8 2 6 3 4 5 6 5 6
14 14 13 12 12 11 10 9 8 7 7 6 6 8 6 2 3 4 5 6 6 6
15 14 14 13 12 11 10 9 8 8 7 6 5 10 7 5 6 4 4 5 5 7
16 16 15 14 11 11 10 9 8 8 8 7 7 10 8 7 4 4 4 4 4 7
17 16 16 14 13 11 10 9 8 8 7 4 6 10 9 8 4 5 3 4 4 7
17 16 15 14 12 11 11 9 9 9 8 8 6 9 9 7 6 3 4 4 3 2
Wind_Direction
157 156 146 140 136 118 114 109 103 90 83 76 66 59 56 59 54 49 46 38 28 25
163 153 140 129 127 130 124 123 118 100 88 77 70 66 69 59 53 47 39 38 22 10
158 151 144 140 134 141 126 128 136 115 99 90 78 71 64 67 51 43 34 31 20 7
157 152 152 146 141 144 140 148 144 134 127 110 88 67 69 68 48 37 33 25 15 12
157 161 159 155 152 149 154 159 150 146 136 122 96 73 64 56 39 31 25 14 6 10
166 170 167 162 156 162 163 160 151 156 151 141 110 82 70 55 39 31 17 8 2 3
173 172 167 161 163 166 170 168 164 160 151 141 124 98 70 56 34 21 20 6 357 357
172 171 165 166 168 169 176 173 169 161 158 154 154 97 73 73 25 9 3 3 349 8
173 171 171 173 173 172 178 175 173 172 171 174 170 115 86 324 7 355 350 347 348 343
176 176 176 176 177 181 181 174 180 182 182 184 156 161 171 265 304 321 348 342 340 339
180 181 180 180 181 181 180 183 185 186 189 186 153 168 182 224 273 295 330 333 341 347
182 183 181 181 183 180 183 185 189 188 191 195 168 175 192 230 252 280 315 332 340 349
184 185 184 181 182 181 187 186 187 189 193 160 185 172 194 229 257 282 319 329 344 121
185 188 185 181 178 182 186 184 188 191 189 190 204 162 190 210 270 305 318 322 336 5